KD5NDU-15 Weather Reports


Display with metric or nautical units.
time (UTC)temp
F
wind
direction
speed
MPH
gust
MPH
rain 1hr
in
rain 24hr
in
rain mn
in
humidity
%
barometer
mb
20260903233134 90 352 1.0 1.0 0.00 0.00 0.00 65 1014.2
20260903232634 90 352 1.0 2.0 0.00 0.00 0.00 64 1014.2
20260903232134 91 352 1.0 4.0 0.00 0.00 0.00 64 1014.4
20260903231634 91 3 1.0 3.0 0.00 0.00 0.00 64 1014.4
20260903231134 92 30 1.0 2.0 0.00 0.00 0.00 64 1014.5
20260903230634 92 17 1.0 5.0 0.00 0.00 0.00 64 1014.5
20260903230134 93 120 1.0 4.0 0.00 0.00 0.00 65 1014.6
20260903225634 93 0 1.0 2.0 0.00 0.00 0.00 65 1014.5
20260903225134 93 35 0.0 2.0 0.00 0.00 0.00 65 1014.4
20260903224634 93 3 0.0 1.0 0.00 0.00 0.00 66 1014.2
20260903224134 93 3 0.0 1.0 0.00 0.00 0.00 66 1014.1
20260903223634 92 21 2.0 3.0 0.00 0.00 0.00 67 1013.8
20260903223134 92 249 2.0 6.0 0.00 0.00 0.00 67 1013.7
20260903222634 92 246 1.0 6.0 0.00 0.00 0.00 66 1013.8
20260903222134 91 255 0.0 3.0 0.00 0.00 0.00 66 1013.7
20260903221634 91 300 0.0 1.0 0.00 0.00 0.00 66 1013.7
20260903221134 91 300 0.0 1.0 0.00 0.00 0.00 66 1013.6
20260903220634 91 300 0.0 1.0 0.00 0.00 0.00 66 1013.6
20260903220134 91 300 1.0 3.0 0.00 0.00 0.00 65 1013.8
20260903215634 92 297 2.0 6.0 0.00 0.00 0.00 64 1013.7
20260903215134 93 242 1.0 6.0 0.00 0.00 0.00 61 1013.6
20260903214634 94 195 0.0 1.0 0.00 0.00 0.00 61 1013.5
20260903214134 95 195 0.0 1.0 0.00 0.00 0.00 60 1013.5
20260903213634 95 195 0.0 0.0 0.00 0.00 0.00 59 1013.5
20260903213134 96 195 0.0 1.0 0.00 0.00 0.00 58 1013.6
20260903212634 96 194 0.0 0.0 0.00 0.00 0.00 57 1013.6
20260903212134 96 194 0.0 1.0 0.00 0.00 0.00 57 1013.6
20260903211634 97 194 0.0 2.0 0.00 0.00 0.00 54 1013.7
20260903211134 97 194 0.0 2.0 0.00 0.00 0.00 53 1013.8
20260903210634 97 194 0.0 2.0 0.00 0.00 0.00 53 1013.8
20260903210134 97 193 1.0 2.0 0.00 0.00 0.00 55 1013.8
20260903205634 97 193 1.0 3.0 0.00 0.00 0.00 52 1013.9
20260903205134 98 193 2.0 3.0 0.00 0.00 0.00 51 1013.8
20260903204634 99 200 1.0 3.0 0.00 0.00 0.00 50 1013.8
20260903204134 99 207 1.0 3.0 0.00 0.00 0.00 50 1013.7
20260903203634 99 230 0.0 2.0 0.00 0.00 0.00 51 1013.8
20260903203134 99 219 1.0 1.0 0.00 0.00 0.00 50 1013.8
20260903202634 100 219 1.0 3.0 0.00 0.00 0.00 50 1013.9
20260903202134 100 53 0.0 0.0 0.00 0.00 0.00 50 1014.0
20260903201634 100 53 1.0 2.0 0.00 0.00 0.00 50 1014.2
20260903201134 100 56 1.0 3.0 0.00 0.00 0.00 49 1014.2
20260903200634 101 77 0.0 3.0 0.00 0.00 0.00 49 1014.3
20260903200134 101 6 1.0 3.0 0.00 0.00 0.00 49 1014.3
20260903195634 100 131 2.0 3.0 0.00 0.00 0.00 51 1014.4
20260903195134 100 155 3.0 6.0 0.00 0.00 0.00 49 1014.3
20260903194634 99 162 3.0 5.0 0.00 0.00 0.00 51 1014.5
20260903194134 99 242 3.0 6.0 0.00 0.00 0.00 52 1014.4
20260903193634 98 225 4.0 5.0 0.00 0.00 0.00 53 1014.6
20260903193134 97 227 3.0 5.0 0.00 0.00 0.00 55 1014.7
20260903192634 96 251 2.0 6.0 0.00 0.00 0.00 55 1014.8
20260903192134 96 233 2.0 5.0 0.00 0.00 0.00 56 1014.8
20260903191634 96 244 3.0 5.0 0.00 0.00 0.00 56 1014.8
20260903191134 96 250 3.0 6.0 0.00 0.00 0.00 55 1015.0
20260903190634 97 226 2.0 6.0 0.00 0.00 0.00 55 1015.1
20260903190134 98 240 2.0 4.0 0.00 0.00 0.00 55 1015.1
20260903185634 98 212 2.0 6.0 0.00 0.00 0.00 54 1015.2
20260903185134 100 107 1.0 3.0 0.00 0.00 0.00 53 1015.2
20260903184634 100 101 1.0 3.0 0.00 0.00 0.00 54 1015.1
20260903184134 98 296 0.0 3.0 0.00 0.00 0.00 57 1015.5
20260903183634 97 252 0.0 2.0 0.00 0.00 0.00 58 1015.6
20260903183134 96 251 0.0 1.0 0.00 0.00 0.00 60 1015.5
20260903182634 95 251 0.0 2.0 0.00 0.00 0.00 60 1015.7
20260903182134 95 250 0.0 2.0 0.00 0.00 0.00 59 1015.7
20260903181634 95 344 0.0 0.0 0.00 0.00 0.00 60 1015.7
20260903181134 95 352 1.0 2.0 0.00 0.00 0.00 60 1015.8
20260903180634 95 257 2.0 6.0 0.00 0.00 0.00 60 1015.9
20260903180134 95 260 3.0 5.0 0.00 0.00 0.00 59 1016.0
20260903175634 96 247 3.0 5.0 0.00 0.00 0.00 58 1016.0
20260903175134 97 235 2.0 4.0 0.00 0.00 0.00 56 1016.1
20260903174634 97 211 4.0 4.0 0.00 0.00 0.00 55 1016.1
20260903174134 97 250 6.0 10.0 0.00 0.00 0.00 54 1016.1
20260903173634 98 199 4.0 9.0 0.00 0.00 0.00 55 1016.1
20260903173134 98 186 2.0 8.0 0.00 0.00 0.00 54 1016.1
20260903172634 98 136 2.0 6.0 0.00 0.00 0.00 54 1016.3
20260903172134 98 57 3.0 7.0 0.00 0.00 0.00 55 1016.4
20260903171634 98 140 4.0 7.0 0.00 0.00 0.00 55 1016.5
20260903171134 98 171 3.0 9.0 0.00 0.00 0.00 55 1016.5
20260903170634 97 82 2.0 5.0 0.00 0.00 0.00 57 1016.5
20260903170134 97 252 2.0 4.0 0.00 0.00 0.00 56 1016.5
20260903165634 97 68 2.0 5.0 0.00 0.00 0.00 56 1016.6
20260903165134 98 59 2.0 5.0 0.00 0.00 0.00 55 1016.7
20260903164634 98 150 2.0 3.0 0.00 0.00 0.00 56 1016.7
20260903164134 97 244 3.0 6.0 0.00 0.00 0.00 56 1016.8
20260903163634 96 174 3.0 7.0 0.00 0.00 0.00 57 1017.0
20260903163134 96 178 3.0 8.0 0.00 0.00 0.00 58 1017.0
20260903162634 96 161 3.0 8.0 0.00 0.00 0.00 59 1017.1
20260903162134 95 237 3.0 6.0 0.00 0.00 0.00 61 1017.0
20260903161634 95 248 3.0 6.0 0.00 0.00 0.00 60 1017.0
20260903161134 96 238 4.0 5.0 0.00 0.00 0.00 61 1017.0
20260903160634 95 188 4.0 5.0 0.00 0.00 0.00 62 1017.2
20260903160134 96 238 2.0 6.0 0.00 0.00 0.00 61 1017.1
20260903155634 97 210 1.0 3.0 0.00 0.00 0.00 60 1017.0
20260903155134 96 200 2.0 4.0 0.00 0.00 0.00 61 1016.9
20260903154634 97 107 1.0 4.0 0.00 0.00 0.00 60 1016.9
20260903154134 97 37 1.0 2.0 0.00 0.00 0.00 61 1016.9
20260903153634 96 54 1.0 3.0 0.00 0.00 0.00 60 1017.0
20260903153134 96 10 1.0 3.0 0.00 0.00 0.00 62 1017.0
20260903152634 96 1 1.0 2.0 0.00 0.00 0.00 62 1017.1
20260903152134 95 1 1.0 2.0 0.00 0.00 0.00 66 1017.0
20260903151634 94 8 0.0 1.0 0.00 0.00 0.00 66 1017.0
20260903151135 94 13 1.0 3.0 0.00 0.00 0.00 66 1017.0
20260903150635 94 262 1.0 4.0 0.00 0.00 0.00 67 1017.0
20260903150135 94 337 1.0 2.0 0.00 0.00 0.00 67 1017.1
20260903145635 93 336 1.0 2.0 0.00 0.00 0.00 68 1017.1
20260903145135 93 340 1.0 2.0 0.00 0.00 0.00 68 1017.1
20260903144635 92 353 0.0 2.0 0.00 0.00 0.00 69 1017.1
20260903144135 91 224 0.0 2.0 0.00 0.00 0.00 71 1017.1
20260903143635 91 224 0.0 2.0 0.00 0.00 0.00 72 1017.0
20260903143135 90 217 0.0 1.0 0.00 0.00 0.00 74 1017.2
20260903142635 89 218 1.0 1.0 0.00 0.00 0.00 75 1017.1
20260903142135 88 218 1.0 3.0 0.00 0.00 0.00 75 1017.1
20260903141635 88 210 1.0 3.0 0.00 0.00 0.00 75 1017.1
20260903141135 87 206 1.0 3.0 0.00 0.00 0.00 76 1017.2
20260903140635 87 205 1.0 3.0 0.00 0.00 0.00 77 1017.3
20260903140135 86 211 1.0 3.0 0.00 0.00 0.00 77 1017.3
20260903135635 85 224 1.0 2.0 0.00 0.00 0.00 79 1017.3
20260903135135 85 224 1.0 3.0 0.00 0.00 0.00 79 1017.4
20260903134635 84 221 1.0 2.0 0.00 0.00 0.00 80 1017.3
20260903134135 84 222 1.0 2.0 0.00 0.00 0.00 82 1017.1
20260903133635 83 222 0.0 2.0 0.00 0.00 0.00 84 1017.2
20260903133135 82 222 0.0 1.0 0.00 0.00 0.00 86 1017.3
20260903132635 81 222 0.0 0.0 0.00 0.00 0.00 88 1017.2
20260903132135 80 222 1.0 2.0 0.00 0.00 0.00 88 1017.2
20260903131635 79 222 1.0 2.0 0.00 0.00 0.00 89 1017.3
20260903131135 78 222 1.0 3.0 0.00 0.00 0.00 89 1017.3
20260903130635 78 222 0.0 2.0 0.00 0.00 0.00 91 1017.1
20260903130135 77 222 0.0 1.0 0.00 0.00 0.00 92 1017.1
20260903125635 76 222 0.0 1.0 0.00 0.00 0.00 92 1017.1
20260903125135 75 222 0.0 0.0 0.00 0.00 0.00 93 1017.1
20260903124635 75 222 0.0 0.0 0.00 0.00 0.00 93 1017.1
20260903124135 75 222 0.0 1.0 0.00 0.00 0.00 94 1017.2
20260903123635 74 222 0.0 0.0 0.00 0.00 0.00 94 1017.1
20260903123135 74 222 0.0 0.0 0.00 0.00 0.00 94 1017.1
20260903122635 74 222 0.0 0.0 0.00 0.00 0.00 94 1017.0
20260903122135 74 222 0.0 0.0 0.00 0.00 0.00 94 1016.8
20260903121635 73 222 0.0 0.0 0.00 0.00 0.00 94 1016.8
20260903121135 73 222 0.0 1.0 0.00 0.00 0.00 94 1016.8
20260903120635 73 222 0.0 1.0 0.00 0.00 0.00 94 1016.8
20260903120135 73 222 1.0 1.0 0.00 0.00 0.00 94 1016.7
20260903115635 73 222 1.0 3.0 0.00 0.00 0.00 93 1016.6
20260903115135 74 222 0.0 3.0 0.00 0.00 0.00 93 1016.6
20260903114635 74 221 0.0 1.0 0.00 0.00 0.00 93 1016.4
20260903114135 73 221 0.0 0.0 0.00 0.00 0.00 93 1016.4
20260903113635 73 221 0.0 0.0 0.00 0.00 0.00 94 1016.3
20260903113135 73 221 0.0 0.0 0.00 0.00 0.00 94 1016.4
20260903112635 73 221 1.0 1.0 0.00 0.00 0.00 94 1016.4
20260903112135 73 221 1.0 4.0 0.00 0.00 0.00 94 1016.3
20260903111635 73 221 0.0 4.0 0.00 0.00 0.00 93 1016.2
20260903111135 73 219 0.0 1.0 0.00 0.00 0.00 93 1016.3
20260903110635 73 219 0.0 2.0 0.00 0.00 0.00 92 1016.2
20260903110135 74 219 0.0 3.0 0.00 0.00 0.00 91 1016.3
20260903105635 75 191 0.0 0.0 0.00 0.00 0.00 91 1016.1
20260903105135 75 191 0.0 0.0 0.00 0.00 0.00 91 1016.0
20260903104635 75 191 0.0 0.0 0.00 0.00 0.00 91 1016.0
20260903104135 75 191 0.0 0.0 0.00 0.00 0.00 91 1016.1
20260903103635 75 191 0.0 0.0 0.00 0.00 0.00 91 1016.0
20260903103135 75 191 0.0 0.0 0.00 0.00 0.00 91 1016.1
20260903102635 75 191 0.0 0.0 0.00 0.00 0.00 91 1016.0
20260903102135 75 191 0.0 0.0 0.00 0.00 0.00 91 1016.0
20260903101635 75 191 0.0 0.0 0.00 0.00 0.00 91 1016.1
20260903101135 75 191 0.0 0.0 0.00 0.00 0.00 91 1016.0
20260903100635 75 191 0.0 0.0 0.00 0.00 0.00 91 1016.0
20260903100135 75 191 0.0 0.0 0.00 0.00 0.00 91 1016.0
20260903095635 75 191 0.0 0.0 0.00 0.00 0.00 91 1016.0
20260903095135 75 191 0.0 0.0 0.00 0.00 0.00 91 1015.9
20260903094635 75 191 0.0 0.0 0.00 0.00 0.00 90 1015.8
20260903094135 75 191 0.0 0.0 0.00 0.00 0.00 90 1015.8
20260903093635 75 191 0.0 0.0 0.00 0.00 0.00 90 1015.9
20260903093135 75 191 0.0 0.0 0.00 0.00 0.00 91 1015.9
20260903092635 75 191 0.0 0.0 0.00 0.00 0.00 91 1015.9
20260903092135 75 191 0.0 0.0 0.00 0.00 0.00 91 1015.8
20260903091635 75 191 0.0 0.0 0.00 0.00 0.00 90 1015.8
20260903091135 75 191 0.0 0.0 0.00 0.00 0.00 91 1015.8
20260903090635 75 191 0.0 0.0 0.00 0.00 0.00 90 1015.7
20260903090135 75 191 0.0 0.0 0.00 0.00 0.00 90 1015.7
20260903085635 75 191 0.0 0.0 0.00 0.00 0.00 90 1015.8
20260903085135 76 191 0.0 0.0 0.00 0.00 0.00 90 1015.9
20260903084635 76 191 0.0 0.0 0.00 0.00 0.00 90 1015.8
20260903084135 76 197 0.0 0.0 0.00 0.00 0.00 89 1015.9
20260903083635 76 197 0.0 0.0 0.00 0.00 0.00 89 1015.9
20260903083135 76 197 0.0 0.0 0.00 0.00 0.00 89 1015.8
20260903082635 76 197 0.0 0.0 0.00 0.00 0.00 89 1015.9
20260903082135 76 197 0.0 0.0 0.00 0.00 0.00 90 1015.9
20260903081635 76 197 0.0 0.0 0.00 0.00 0.00 89 1015.9
20260903081135 76 197 0.0 0.0 0.00 0.00 0.00 88 1015.8
20260903080635 76 197 0.0 0.0 0.00 0.00 0.00 88 1015.8
20260903080135 76 197 0.0 0.0 0.00 0.00 0.00 88 1015.8
20260903075635 76 197 0.0 0.0 0.00 0.00 0.00 88 1015.8
20260903075135 76 197 0.0 0.0 0.00 0.00 0.00 88 1015.8
20260903074635 76 197 0.0 0.0 0.00 0.00 0.00 88 1015.9
20260903074135 76 197 0.0 0.0 0.00 0.00 0.00 88 1015.8
20260903073635 76 197 0.0 0.0 0.00 0.00 0.00 88 1015.8
20260903073135 76 197 0.0 0.0 0.00 0.00 0.00 88 1015.9
20260903072635 76 197 0.0 0.0 0.00 0.00 0.00 88 1016.0
20260903072135 76 197 0.0 0.0 0.00 0.00 0.00 88 1016.0
20260903071635 76 197 0.0 0.0 0.00 0.00 0.00 88 1016.0
20260903071135 76 197 0.0 0.0 0.00 0.00 0.00 89 1016.1
20260903070635 77 197 0.0 0.0 0.00 0.00 0.00 88 1016.0
20260903070135 77 197 0.0 0.0 0.00 0.00 0.00 88 1016.1
20260903065635 77 197 0.0 0.0 0.00 0.00 0.00 87 1016.1
20260903065135 77 197 0.0 0.0 0.00 0.00 0.00 87 1016.1
20260903064635 77 197 0.0 0.0 0.00 0.00 0.00 87 1016.2
20260903064135 77 197 0.0 0.0 0.00 0.00 0.00 87 1016.2
20260903063635 77 197 0.0 0.0 0.00 0.00 0.00 87 1016.2
20260903063135 78 197 0.0 0.0 0.00 0.00 0.00 86 1016.2
20260903062635 78 197 0.0 0.0 0.00 0.00 0.00 87 1016.2
20260903062135 78 197 0.0 0.0 0.00 0.00 0.00 86 1016.3
20260903061635 78 197 0.0 0.0 0.00 0.00 0.00 87 1016.3
20260903061135 78 197 0.0 0.0 0.00 0.00 0.00 85 1016.3
20260903060635 78 197 0.0 0.0 0.00 0.00 0.00 86 1016.2
20260903060135 78 197 0.0 0.0 0.00 0.00 0.00 86 1016.3
20260903055635 78 197 0.0 0.0 0.00 0.00 0.00 85 1016.4
20260903055135 78 197 0.0 0.0 0.00 0.00 0.00 85 1016.4
20260903054635 78 197 0.0 0.0 0.00 0.00 0.00 84 1016.3
20260903054135 78 197 0.0 0.0 0.00 0.00 0.00 84 1016.3
20260903053635 78 197 0.0 0.0 0.00 0.00 0.00 85 1016.3
20260903053135 78 197 0.0 0.0 0.00 0.00 0.00 85 1016.3
20260903052635 78 197 0.0 0.0 0.00 0.00 0.00 85 1016.2
20260903052135 78 197 0.0 0.0 0.00 0.00 0.00 84 1016.1
20260903051635 78 197 0.0 0.0 0.00 0.00 0.00 84 1016.2
20260903051135 78 197 0.0 0.0 0.00 0.00 0.00 84 1016.2
20260903050635 79 197 0.0 0.0 0.00 0.00 0.00 84 1016.2
20260903050135 79 197 0.0 0.0 0.00 0.00 0.00 83 1016.2
20260903045635 79 197 0.0 0.0 0.00 0.00 0.00 83 1016.1
20260903045135 79 197 0.0 0.0 0.00 0.00 0.00 83 1016.0
20260903044635 79 197 0.0 0.0 0.00 0.00 0.00 82 1016.0
20260903044135 80 197 0.0 0.0 0.00 0.00 0.00 82 1016.0
20260903043635 80 197 0.0 0.0 0.00 0.00 0.00 81 1015.9
20260903043135 80 197 0.0 0.0 0.00 0.00 0.00 80 1016.0
20260903042635 80 197 0.0 0.0 0.00 0.00 0.00 81 1016.0
20260903042135 81 197 0.0 0.0 0.00 0.00 0.00 79 1016.1
20260903041635 81 197 0.0 0.0 0.00 0.00 0.00 79 1016.1
20260903041135 81 197 0.0 0.0 0.00 0.00 0.00 79 1016.2
20260903040635 81 197 0.0 0.0 0.00 0.00 0.00 79 1016.1
20260903040135 81 197 0.0 0.0 0.00 0.00 0.00 79 1016.2
20260903035635 81 197 0.0 0.0 0.00 0.00 0.00 78 1016.2
20260903035135 81 197 0.0 0.0 0.00 0.00 0.00 78 1016.2
20260903034635 81 197 0.0 0.0 0.00 0.00 0.00 78 1016.1
20260903034135 81 197 0.0 0.0 0.00 0.00 0.00 78 1016.1
20260903033635 81 197 0.0 0.0 0.00 0.00 0.00 79 1016.2
20260903033135 81 197 0.0 1.0 0.00 0.00 0.00 79 1016.3
20260903032635 81 197 0.0 0.0 0.00 0.00 0.00 78 1016.4
20260903032135 81 197 0.0 0.0 0.00 0.00 0.00 78 1016.4
20260903031635 81 197 0.0 0.0 0.00 0.00 0.00 78 1016.4
20260903031135 81 197 0.0 0.0 0.00 0.00 0.00 78 1016.3
20260903030635 81 197 0.0 1.0 0.00 0.00 0.00 78 1016.2
20260903030135 82 197 0.0 2.0 0.00 0.00 0.00 78 1016.1
20260903025635 83 198 0.0 2.0 0.00 0.00 0.00 76 1016.3
20260903025135 85 191 1.0 2.0 0.00 0.00 0.00 73 1016.2
20260903024635 85 189 1.0 3.0 0.00 0.00 0.00 70 1016.2
20260903024135 86 186 1.0 3.0 0.00 0.00 0.00 69 1016.1
20260903023635 86 173 1.0 2.0 0.00 0.00 0.00 69 1016.1
20260903023135 86 188 1.0 3.0 0.00 0.00 0.00 68 1016.2
20260903022635 86 186 1.0 3.0 0.00 0.00 0.00 68 1016.1
20260903022135 87 166 1.0 2.0 0.00 0.00 0.00 67 1016.2
20260903021635 87 165 0.0 3.0 0.00 0.00 0.00 67 1016.1
20260903021136 87 195 0.0 0.0 0.00 0.00 0.00 66 1016.2
20260903020636 87 195 1.0 2.0 0.00 0.00 0.00 66 1016.1
20260903020136 88 198 1.0 3.0 0.00 0.00 0.00 65 1015.9
20260903015636 88 210 1.0 2.0 0.00 0.00 0.00 65 1015.8
20260903015136 88 174 1.0 3.0 0.00 0.00 0.00 65 1015.7
20260903014636 88 199 1.0 2.0 0.00 0.00 0.00 64 1015.7
20260903014136 88 199 0.0 2.0 0.00 0.00 0.00 64 1015.7
20260903013636 89 200 0.0 1.0 0.00 0.00 0.00 64 1015.6
20260903013136 89 200 1.0 1.0 0.00 0.00 0.00 63 1015.6
20260903012636 89 200 1.0 1.0 0.00 0.00 0.00 63 1015.5
20260903012136 89 200 1.0 2.0 0.00 0.00 0.00 62 1015.3
20260903011636 89 202 1.0 3.0 0.00 0.00 0.00 63 1015.3
20260903011136 89 185 0.0 3.0 0.00 0.00 0.00 63 1015.4
20260903010636 89 201 0.0 2.0 0.00 0.00 0.00 62 1015.3
20260903010136 89 211 1.0 1.0 0.00 0.00 0.00 62 1015.3
20260903005636 90 211 2.0 2.0 0.00 0.00 0.00 61 1015.2
20260903005136 90 227 2.0 4.0 0.00 0.00 0.00 61 1015.2
20260903004636 90 216 1.0 4.0 0.00 0.00 0.00 60 1015.2
20260903004136 91 206 1.0 3.0 0.00 0.00 0.00 60 1015.2
20260903003636 91 194 1.0 3.0 0.00 0.00 0.00 59 1015.2
20260903003136 91 222 2.0 4.0 0.00 0.00 0.00 58 1015.2
20260903002636 92 203 2.0 3.0 0.00 0.00 0.00 57 1015.1
20260903002136 92 193 2.0 3.0 0.00 0.00 0.00 56 1015.1
20260903001636 93 210 1.0 3.0 0.00 0.00 0.00 55 1015.0
20260903001136 93 170 1.0 3.0 0.00 0.00 0.00 54 1015.0
20260903000636 94 167 1.0 3.0 0.00 0.00 0.00 53 1015.0
20260903000136 94 185 2.0 3.0 0.00 0.00 0.00 52 1015.2
20260902235636 94 185 2.0 3.0 0.00 0.00 0.00 51 1015.2
20260902235136 94 198 1.0 4.0 0.00 0.00 0.00 50 1015.2
20260902234636 95 198 2.0 3.0 0.00 0.00 0.00 50 1015.1
20260902234136 95 200 2.0 4.0 0.00 0.00 0.00 49 1015.2
20260902233636 95 203 2.0 5.0 0.00 0.00 0.00 49 1015.2